BREEZE-M R/B, 40385

Orbit data source: Space-Track

BREEZE-M R/B, 40385 is space debris in HEO originally from a launch on Sun, 01 Feb 2015 UTC launched from the Tyuratam Missile And Space Complex (TTMTR). Debris objects in space refer to the collection of defunct objects orbiting the Earth. Examples of debris include non-operational satellites, rocket bodies, and fragments generated from explosions, collisions, or faulty payload assembly.

Loading next visibility...
Identifier
40385, 2015-005B
Orbit
HEO
Country
Flag of CISCIS
Related business
Manufacturer
Khrunichev
Mission
Spacecraft
Bus & Motor
BRIZ, Unknown motor
Mass
~1,600 kg wet, 1,600 kg dry
Launch date (UTC)
2015-02-01 (11 years ago)
Launch vehicle
Unknown
Launch site
Tyuratam Missile And Space Complex (TTMTR)
Object type
Payload
Rocket body
Debris
Shape & HBR
Cyl, 2.0 m
Radar Cross Section
15.135 m², Large (>1 m²)

Expand to show TLE details & history
Last TLE update: 1 week ago

TLE from 1 week ago
0 BREEZE-M R/B
1 40385U 15005B   25329.99669642 -.00000317  00000-0  00000-0 0  9995
2 40385  27.3238 291.8875 7577110 101.1162 344.2854  1.11107282 43894
Epoch: 2025-11-25T23:55Z
TLE epoch observation values (Epoch: 2025-11-25T23:55:14.570Z)
Latitude
-0.00006°
Longitude
-132.30381°
Altitude
13,267.736 km
Speed
5.519 km/s
True Right ascension
19h 26m 43s
True Declination
0° 00' 00"
Sunlit
Object was in daylight at epoch
Visualization orbit readout
Latitude
Unknown
Longitude
Unknown
Altitude
Unknown
Speed
Unknown
Apparent Right ascension
Unknown
Apparent Declination
Unknown
Sunlit
N/A
Visualization observer readout
Local Sidereal Time
13:30:48
Azimuth
Unknown
Elevation
Unknown
Doppler factor
Unknown
Orbital elements
Apogee altitude
62,839.737 km
Perigee altitude
3,163.096 km
Semi-major axis
39,379.553 km
Eccentricity
0.75771
Inclination
27.3238°
RAAN
291.8875°
Arg. of periapsis
101.1162°
True anomaly
259.71015°
Mean anomaly
344.2854°
Eccentric anomaly
312.04622°
Mean motion
0.27774 °/min
Orbital period
1,296.18 mins
BSTAR
0
Loading maneuver chart data...
Computing Atmospheric mass density...
Loading historical data...
Loading historical data...
Loading historical data...
Loading historical data...
Loading historical data...
Loading historical data...
Loading historical data...
Other satellites on launch #5 in the year 2015 (2015-02-01 UTC)

Documentation

Showing up to 5 results
|